Oroville, CA

11:33 PM PDT on June 28, 2017 (GMT -0700)
Oroville Municipal

Weather History for KOVE - November, 2013

Change the Weather History Date:

Wednesday, November 20, 2013

  Actual Average Record
Temperature  
Mean Temperature 54 °F -  
Max Temperature 55 °F 62 °F 76 °F (1971)
Min Temperature 53 °F 40 °F 26 °F (1985)
Degree Days  
Heating Degree Days 11    
Growing Degree Days 4 (Base 50)    
Moisture  
Dew Point 54 °F    
Average Humidity 96    
Maximum Humidity 100    
Minimum Humidity 93    
Precipitation  
Precipitation 0.25 in - - ()
Sea Level Pressure  
Sea Level Pressure 29.90 in    
Wind  
Wind Speed 9 mph (SSE)    
Max Wind Speed 15 mph    
Max Gust Speed 21 mph    
Visibility 4 miles    
Events Rain    
Averages and records for this station are not official NWS values.
T = Trace of Precipitation, MM = Missing Value Source: NWS Daily Summary

Daily Weather History Graph

Daily Weather History Graph

Search for Another Location

Airport or City:

Trip Planner

Search our weather history database for the weather conditions in past years. The results will help you decide how hot, cold, wet, or windy it might be!

Date:

Astronomy

Nov. 20, 2013 Rise Set
Actual Time 6:56 AM PST 4:47 PM PST
Civil Twilight 6:27 AM PST 5:16 PM PST
Nautical Twilight 5:54 AM PST 5:49 PM PST
Astronomical Twilight 5:22 AM PST 6:21 PM PST
Moon 7:35 PM PST (11/20) 9:25 AM PST (11/20)
Length of Visible Light 10h 49m
Length of Day
9h 51m
Waning Gibbous, 91% of the Moon is Illuminated
Nov 20
Waning Gibbous
Nov 25
Last Quarter
Dec 2
New
Dec 9
First Quarter
Dec 17
Full

Hourly Weather History & Observations

Time (PST) Temp. Dew Point Humidity Pressure Visibility Wind Dir Wind Speed Gust Speed Precip Events Conditions
12:15 AM 54.0 °F 53.1 °F 97% 29.95 in 10.0 mi SE 11.5 mph - 0.00 in   Overcast
12:53 AM 54.0 °F 53.1 °F 97% 29.95 in 4.0 mi SE 10.4 mph - 0.00 in   Overcast
1:04 AM 54.0 °F 53.1 °F 97% 29.94 in 6.0 mi SE 11.5 mph - N/A   Overcast
1:53 AM 54.0 °F 53.1 °F 97% 29.94 in 4.0 mi SE 12.7 mph - 0.05 in Rain Rain
2:15 AM 54.0 °F 53.1 °F 97% 29.93 in 2.0 mi SSE 13.8 mph - 0.07 in Rain Rain
2:20 AM 54.0 °F 53.1 °F 97% 29.93 in 3.0 mi SSE 13.8 mph - 0.08 in Rain Light Rain
2:53 AM 54.0 °F 53.1 °F 97% 29.94 in 8.0 mi SE 12.7 mph - 0.11 in Rain Light Rain
3:53 AM 54.0 °F 52.0 °F 93% 29.93 in 10.0 mi SSE 9.2 mph - 0.00 in   Overcast
4:53 AM 54.0 °F 52.0 °F 93% 29.92 in 10.0 mi SSE 11.5 mph - N/A   Overcast
5:16 AM 54.0 °F 52.0 °F 93% 29.92 in 8.0 mi SSE 13.8 mph - N/A   Overcast
5:53 AM 54.0 °F 52.0 °F 93% 29.92 in 6.0 mi SSE 11.5 mph 20.7 mph N/A   Overcast
6:28 AM 54.0 °F 52.0 °F 93% 29.92 in 4.0 mi SSE 11.5 mph - N/A   Overcast
6:53 AM 54.0 °F 53.1 °F 97% 29.93 in 3.0 mi SSE 12.7 mph - 0.00 in Rain Light Rain
7:36 AM 54.0 °F 53.1 °F 97% 29.92 in 2.5 mi SSE 10.4 mph - 0.00 in   Overcast
7:53 AM 54.0 °F 53.1 °F 97% 29.93 in 2.5 mi SSE 11.5 mph - 0.00 in   Overcast
8:17 AM 54.0 °F 53.1 °F 97% 29.93 in 1.8 mi SSE 11.5 mph - N/A   Overcast
8:53 AM 54.0 °F 53.1 °F 97% 29.94 in 1.8 mi SSE 10.4 mph - 0.00 in Rain Light Rain
9:06 AM 55.0 °F 53.1 °F 93% 29.93 in 2.0 mi SSE 11.5 mph - 0.00 in   Overcast
9:16 AM 55.0 °F 53.1 °F 93% 29.94 in 2.0 mi SSE 12.7 mph - 0.01 in   Overcast
9:51 AM 55.4 °F 53.6 °F 94% 29.93 in 4.0 mi SSE 11.5 mph - 0.01 in   Overcast
9:53 AM 55.0 °F 54.0 °F 96% 29.94 in 4.0 mi SSE 13.8 mph - 0.01 in   Overcast
10:42 AM 55.0 °F 54.0 °F 96% 29.93 in 4.0 mi South 15.0 mph - N/A   Overcast
10:53 AM 55.0 °F 54.0 °F 96% 29.94 in 3.0 mi South 12.7 mph - N/A   Overcast
11:09 AM 55.0 °F 54.0 °F 96% 29.92 in 3.0 mi SSE 15.0 mph - N/A   Overcast
11:53 AM 55.0 °F 54.0 °F 96% 29.90 in 5.0 mi SSE 12.7 mph - N/A   Overcast
12:41 PM 55.0 °F 54.0 °F 96% 29.88 in 7.0 mi SSE 11.5 mph - N/A   Overcast
12:53 PM 55.0 °F 54.0 °F 96% 29.89 in 7.0 mi SSE 10.4 mph - N/A   Overcast
1:53 PM 55.0 °F 54.0 °F 96% 29.87 in 6.0 mi South 11.5 mph - 0.00 in   Overcast
2:41 PM 55.0 °F 54.0 °F 96% 29.87 in 2.5 mi South 5.8 mph - N/A   Overcast
2:53 PM 55.0 °F 54.0 °F 96% 29.87 in 3.0 mi SSE 9.2 mph - N/A   Overcast
3:53 PM 55.9 °F 54.0 °F 93% 29.87 in 3.0 mi SSE 6.9 mph - N/A   Overcast
4:21 PM 55.9 °F 55.0 °F 97% 29.86 in 2.5 mi South 4.6 mph - N/A   Overcast
4:37 PM 55.9 °F 55.0 °F 97% 29.87 in 1.8 mi SSE 3.5 mph - N/A   Overcast
4:44 PM 55.9 °F 54.0 °F 93% 29.87 in 2.5 mi SSE 4.6 mph - N/A   Overcast
4:53 PM 55.9 °F 55.0 °F 97% 29.87 in 3.0 mi SSE 3.5 mph - 0.00 in Rain Light Rain
5:53 PM 55.9 °F 55.0 °F 97% 29.88 in 3.0 mi Calm Calm - 0.00 in   Overcast
6:04 PM 55.9 °F 55.0 °F 97% 29.87 in 4.0 mi Calm Calm - N/A   Overcast
6:53 PM 55.9 °F 55.0 °F 97% 29.88 in 3.0 mi Calm Calm - 0.00 in Rain Light Rain
7:15 PM 55.9 °F 55.0 °F 97% 29.88 in 2.5 mi Calm Calm - 0.03 in Rain Light Rain
7:31 PM 55.9 °F 55.0 °F 97% 29.88 in 3.0 mi Calm Calm - 0.06 in Rain Light Rain
7:42 PM 55.0 °F 54.0 °F 96% 29.88 in 3.0 mi Calm Calm - 0.06 in   Overcast
7:51 PM 55.4 °F 53.6 °F 94% 29.88 in 2.5 mi Calm Calm - 0.06 in   Overcast
7:52 PM 55.0 °F 54.0 °F 96% 29.89 in 2.5 mi Calm Calm - 0.06 in   Overcast
8:09 PM 55.0 °F 54.0 °F 96% 29.89 in 1.8 mi Calm Calm - 0.01 in Rain Light Rain
8:18 PM 55.0 °F 54.0 °F 96% 29.89 in 2.0 mi WNW 3.5 mph - 0.01 in   Overcast
8:27 PM 55.0 °F 54.0 °F 96% 29.89 in 1.5 mi NNW 3.5 mph - 0.01 in Rain Light Rain
8:39 PM 55.0 °F 54.0 °F 96% 29.89 in 2.0 mi North 3.5 mph - 0.02 in Rain Light Rain
8:53 PM 55.0 °F 54.0 °F 96% 29.90 in 2.5 mi NNW 3.5 mph - 0.02 in   Overcast
9:02 PM 55.0 °F 54.0 °F 96% 29.89 in 2.5 mi NNW 3.5 mph - N/A   Overcast
9:17 PM 55.0 °F 54.0 °F 96% 29.90 in 2.0 mi NW 3.5 mph - N/A   Overcast
9:25 PM 55.0 °F 54.0 °F 96% 29.90 in 2.5 mi Calm Calm - N/A   Overcast
9:53 PM 55.0 °F 54.0 °F 96% 29.90 in 2.5 mi Calm Calm - N/A   Overcast
10:10 PM 55.0 °F 54.0 °F 96% 29.89 in 2.0 mi WNW 4.6 mph - N/A   Overcast
10:17 PM 55.0 °F 54.0 °F 96% 29.89 in 2.0 mi WNW 3.5 mph - N/A   Overcast
10:30 PM 54.0 °F 54.0 °F 100% 29.89 in 1.8 mi Calm Calm - N/A   Overcast
10:38 PM 54.0 °F 54.0 °F 100% 29.90 in 2.5 mi Calm Calm - N/A   Overcast
10:53 PM 54.0 °F 53.1 °F 97% 29.91 in 2.5 mi WNW 5.8 mph - N/A   Overcast
10:58 PM 54.0 °F 53.1 °F 97% 29.90 in 3.0 mi NW 5.8 mph - N/A   Overcast
11:10 PM 54.0 °F 53.1 °F 97% 29.90 in 3.0 mi NW 4.6 mph - N/A   Overcast
11:18 PM 53.1 °F 53.1 °F 100% 29.90 in 5.0 mi NW 3.5 mph - N/A   Overcast
11:45 PM 53.1 °F 52.0 °F 96% 29.91 in 9.0 mi NW 4.6 mph - N/A   Overcast
11:53 PM 53.1 °F 52.0 °F 96% 29.91 in 10.0 mi NW 4.6 mph - N/A   Overcast